[[{"header":{"parameterUnit":"m.s-1","parameterCategory":1,"la1":30.2991,"la2":30.254,"lo1":-89.0895,"lo2":-89.0444,"dx":0.0017,"dy":0.0017,"nx":28,"ny":28,"refTime":"2022-12-15T09:00:00:Z","depth":0,"parameterNumber":2,"parameterNumberName":"U-component_of_WINDS"},"data":[0,0,0,0,0,0,0,0,0,0,0,0,0,0,0,0,0,0,0,0,0,0,0,0,0,0,0,0,0,0,0,0,0,0,0,0,0,0,0,0,0,0,0,0,0,0,0,0,0,0,0,0,0,0,0,0,0,0,0.0605,0.0606,0,0.0638,0.0639,0.0639,0.067,0.0671,0.0671,0.0671,0.0704,0.0705,0.0705,0,0,0,0,0,0,0,0,0,0,0,0,0,0.0568,0.0569,0.0605,0.0606,0.0606,0.0638,0.0639,0.0639,0.067,0.0671,0.0671,0.0671,0.0704,0.0705,0.0705,0,0,0,0,0,0,0,0,0,0,0,0,0,0.0591,0.0569,0.0605,0.0625,0.0628,0.0638,0.0639,0.0639,0.067,0.0671,0.0671,0.0672,0.0704,0.0705,0.0706,0.0698,0,0,0.0708,0.0708,0,0,0,0,0,0,0,0,0.059,0.0592,0.0622,0.0624,0.0626,0.0651,0.0638,0.0659,0.067,0.0654,0.0671,0.0672,0.0686,0.0688,0.0693,0.07,0.0701,0.0708,0.0708,0.0709,0.0709,0,0,0,0,0,0,0,0.0588,0.0591,0.0618,0.0622,0.0625,0.0633,0.0636,0.0642,0.0666,0.0655,0.0658,0.0661,0.0687,0.0692,0.0694,0.0702,0.0708,0.0709,0.0709,0.0709,0.0704,0.0703,0,0,0,0,0,0,0.0583,0.059,0.0617,0.0619,0.0609,0.0633,0.0637,0.0642,0.0666,0.067,0.0661,0.0662,0.0691,0.0693,0.0695,0.0688,0.0709,0.0709,0.071,0.0704,0.0704,0.0703,0,0,0,0,0,0,0.0583,0.0586,0.0616,0.0605,0.0609,0.0633,0.0638,0.0643,0.0648,0.067,0.0675,0.0661,0.0691,0.0694,0.0697,0.0689,0.071,0.071,0.0705,0.0704,0.0703,0.0673,0,0,0,0,0,0,0.0581,0.0585,0.0583,0.0605,0.061,0.0617,0.0638,0.0643,0.0649,0.0652,0.0672,0.0676,0.0692,0.0696,0.0698,0.0691,0.0711,0.0706,0.0705,0.0704,0.0675,0.0671,0.0668,0,0,0,0,0,0.058,0.0573,0.0583,0.0586,0.0608,0.0617,0.062,0.0638,0.0648,0.0646,0.066,0.0675,0.069,0.0696,0.0699,0.0692,0.0706,0.0705,0.0704,0.0676,0.0672,0.0668,0,0,0,0,0,0,0.055,0.0576,0.0587,0.0587,0.0599,0.0622,0.062,0.0633,0.0643,0.0645,0.0668,0.0672,0.0672,0.0683,0.0688,0.0686,0.07,0.0699,0.0679,0.0675,0.0671,0.0668,0.0712,0,0,0,0,0,0.0543,0.0548,0.0571,0.0569,0.0575,0.0596,0.0601,0.0614,0.0628,0.0633,0.0648,0.066,0.0668,0.0672,0.068,0.0677,0.0681,0.0673,0.067,0.0667,0.0666,0.0664,0.066,0.0698,0.0698,0.0698,0,0,0.0529,0.0544,0.0546,0.0564,0.0575,0.0579,0.06,0.0605,0.0608,0.0634,0.0637,0.0648,0.0664,0.0663,0.0664,0.0672,0.0656,0.0665,0.0663,0.0663,0.0662,0.0658,0.0655,0.0697,0.0698,0.0698,0,0,0.0506,0.0519,0.0518,0.0528,0.0545,0.0559,0.0559,0.0579,0.0588,0.0592,0.0611,0.0615,0.0628,0.0638,0.0644,0.0625,0.0638,0.0627,0.0609,0.0607,0.0604,0.0601,0.0593,0.059,0.0626,0.0625,0.0625,0,0.0487,0.0495,0.0516,0.0518,0.0525,0.0549,0.0548,0.0557,0.0575,0.0579,0.0588,0.0604,0.0616,0.0617,0.0612,0.0618,0.0617,0.0624,0.0603,0.06,0.0598,0.0591,0.0588,0.0624,0.0624,0.0624,0.0624,0,0.0469,0.0475,0.0472,0.0489,0.0495,0.0496,0.0517,0.0521,0.0534,0.0547,0.055,0.0565,0.0577,0.0578,0.0591,0.0582,0.0586,0.0598,0.0613,0.0592,0.0586,0.0583,0.0622,0.0622,0.0623,0.0623,0,0,0.0428,0.0456,0.0455,0.0462,0.0482,0.0486,0.0488,0.0499,0.0502,0.0514,0.0515,0.0525,0.0537,0.0544,0.0558,0.0557,0.0539,0.0569,0.057,0.0562,0.0528,0.0518,0.0514,0.0549,0.0548,0.0548,0.0527,0,0.0407,0.0412,0.043,0.0429,0.0434,0.0456,0.0458,0.047,0.0482,0.0488,0.0502,0.0508,0.0523,0.0528,0.0527,0.0541,0.0532,0.0543,0.0549,0.0549,0.0544,0.0511,0.05,0.0479,0.0524,0.0524,0.0524,0,0.0384,0.0394,0.0393,0.0412,0.0415,0.0416,0.0427,0.0432,0.0447,0.0456,0.0464,0.0479,0.0482,0.0497,0.05,0.0507,0.0511,0.0518,0.0518,0.0518,0.0534,0.0509,0.0473,0.047,0.052,0.052,0.052,0,0.0351,0.0365,0.0366,0.0372,0.0395,0.0395,0.0405,0.0419,0.0425,0.0435,0.0438,0.0448,0.0454,0.0461,0.0479,0.0488,0.048,0.0496,0.0487,0.0486,0.0483,0.0483,0.0446,0.0487,0.0487,0.0487,0.0487,0,0.0326,0.0324,0.0352,0.0352,0.0351,0.0373,0.0371,0.0382,0.0395,0.0398,0.0419,0.0421,0.0445,0.045,0.0464,0.0464,0.0467,0.0473,0.0477,0.0471,0.047,0.0473,0.0474,0.0487,0.0487,0.0487,0.0487,0,0.0289,0.0308,0.0311,0.0332,0.0337,0.0335,0.0354,0.0355,0.0368,0.0372,0.0374,0.0395,0.0402,0.0421,0.0432,0.0442,0.0437,0.0445,0.0432,0.0434,0.0423,0.0423,0.0386,0.0381,0.0427,0.0426,0.0426,0,0.0271,0.027,0.0292,0.0295,0.0304,0.0309,0.0314,0.0336,0.0341,0.0356,0.0355,0.0364,0.0371,0.0381,0.0397,0.0406,0.0413,0.0399,0.0414,0.0408,0.0411,0.0411,0.041,0.0396,0.0395,0.0395,0.0394,0,0.0236,0.0246,0.0253,0.0263,0.0269,0.0278,0.0288,0.029,0.0314,0.0318,0.0325,0.0331,0.0343,0.035,0.0362,0.0371,0.0386,0.0389,0.0387,0.038,0.0373,0.0376,0.0422,0.039,0.039,0.0391,0.0391,0.0391,0.0208,0.0208,0.0222,0.023,0.024,0.0249,0.025,0.0264,0.0271,0.0282,0.0294,0.03,0.0313,0.033,0.0339,0.0343,0.0351,0.0348,0.0347,0.0346,0.0343,0.0373,0.0345,0.0345,0.0345,0.0346,0.0346,0,0.0173,0.0183,0.019,0.0203,0.0209,0.0223,0.0235,0.0239,0.0243,0.0255,0.0262,0.027,0.0277,0.0294,0.0303,0.0303,0.031,0.0305,0.0304,0.0306,0.0336,0.0336,0.0299,0.0299,0.0299,0.0299,0.0299,0.0299,0.0155,0.0156,0.0167,0.0172,0.0183,0.0188,0.0194,0.0202,0.0211,0.0219,0.0225,0.0237,0.025,0.026,0.0268,0.0272,0.0274,0.0266,0.0273,0.03,0.0304,0.0308,0.0309,0.0267,0.0267,0.0243,0.0243,0.0243]},{"header":{"parameterUnit":"m.s-1","parameterCategory":1,"la1":30.2991,"la2":30.254,"lo1":-89.0895,"lo2":-89.0444,"dx":0.0017,"dy":0.0017,"nx":28,"ny":28,"refTime":"2022-12-15T09:00:00:Z","depth":0,"parameterNumber":3,"parameterNumberName":"V-component_of_WINDS"},"data":[0,0,0,0,0,0,0,0,0,0,0,0,0,0,0,0,0,0,0,0,0,0,0,0,0,0,0,0,0,0,0,0,0,0,0,0,0,0,0,0,0,0,0,0,0,0,0,0,0,0,0,0,0,0,0,0,0,0,0.8166,0.8165,0,0.8069,0.8068,0.8066,0.8024,0.8024,0.8024,0.8025,0.7923,0.7921,0.7918,0,0,0,0,0,0,0,0,0,0,0,0,0,0.8314,0.8311,0.8166,0.8165,0.8164,0.8069,0.8067,0.8066,0.8024,0.8024,0.8024,0.8025,0.7924,0.7921,0.7918,0,0,0,0,0,0,0,0,0,0,0,0,0,0.8236,0.831,0.8166,0.8131,0.8127,0.8069,0.8067,0.8066,0.8024,0.8024,0.8024,0.8025,0.7926,0.7921,0.7917,0.7886,0,0,0.7904,0.7902,0,0,0,0,0,0,0,0,0.8241,0.8231,0.8138,0.8134,0.8129,0.8059,0.8082,0.8006,0.8024,0.8063,0.8025,0.8025,0.7968,0.796,0.7942,0.7882,0.7877,0.7904,0.7901,0.7899,0.7898,0,0,0,0,0,0,0,0.8246,0.8235,0.8127,0.8136,0.8131,0.812,0.8109,0.8068,0.8016,0.806,0.8056,0.8046,0.7966,0.7946,0.7939,0.7876,0.7904,0.79,0.7898,0.7896,0.7784,0.7784,0,0,0,0,0,0,0.8258,0.824,0.8131,0.8125,0.8187,0.8117,0.8105,0.8081,0.8016,0.8006,0.8045,0.8044,0.7953,0.7944,0.7935,0.7894,0.7899,0.7895,0.7893,0.7785,0.7784,0.7784,0,0,0,0,0,0,0.8261,0.8248,0.8134,0.8181,0.8166,0.8114,0.8088,0.8079,0.8059,0.8005,0.7995,0.8035,0.7953,0.7941,0.7899,0.789,0.7894,0.789,0.7785,0.7785,0.7784,0.7812,0,0,0,0,0,0,0.8265,0.825,0.8238,0.8181,0.8164,0.81,0.8087,0.8077,0.8052,0.8049,0.7992,0.7983,0.7952,0.7905,0.7894,0.7884,0.7886,0.7786,0.7785,0.7784,0.7811,0.7812,0.7813,0,0,0,0,0,0.8271,0.825,0.8238,0.8225,0.8148,0.81,0.809,0.8054,0.8051,0.8039,0.8004,0.7985,0.7893,0.7901,0.7889,0.7877,0.7786,0.7785,0.7784,0.7811,0.7812,0.7813,0,0,0,0,0,0,0.8306,0.8241,0.8227,0.8187,0.8149,0.8093,0.8076,0.8057,0.8019,0.8017,0.7975,0.7963,0.7923,0.7896,0.7907,0.7843,0.7838,0.7834,0.7862,0.7863,0.7864,0.7871,0.7883,0,0,0,0,0,0.831,0.8276,0.8221,0.8191,0.8173,0.8128,0.8106,0.8082,0.8041,0.8024,0.7986,0.7947,0.7908,0.7884,0.7846,0.7807,0.7794,0.7793,0.7794,0.7795,0.7792,0.7768,0.7767,0.7781,0.7781,0.7781,0,0,0.8316,0.8276,0.8258,0.8197,0.8165,0.8131,0.8115,0.8079,0.8053,0.8019,0.7976,0.7947,0.79,0.7859,0.7839,0.7834,0.7785,0.7793,0.7794,0.7791,0.7767,0.7766,0.7764,0.778,0.778,0.778,0,0,0.8309,0.8277,0.8248,0.8216,0.8167,0.8137,0.813,0.8076,0.8055,0.8012,0.7985,0.7953,0.7889,0.7856,0.7831,0.7812,0.7792,0.78,0.7804,0.7781,0.778,0.7779,0.7771,0.7769,0.7798,0.7798,0.7798,0,0.8323,0.8271,0.8235,0.8201,0.8175,0.8142,0.8112,0.8082,0.8024,0.8006,0.8003,0.792,0.7886,0.7836,0.7832,0.7813,0.7803,0.7806,0.7783,0.7782,0.778,0.7772,0.7769,0.7799,0.7799,0.7799,0.7799,0,0.829,0.8254,0.8236,0.8181,0.8153,0.8121,0.8079,0.8055,0.8033,0.8004,0.7959,0.7917,0.787,0.7856,0.7835,0.7803,0.7802,0.7792,0.7785,0.778,0.7772,0.7769,0.7801,0.7801,0.78,0.78,0,0,0.8303,0.8228,0.8222,0.8195,0.8139,0.8111,0.8077,0.8031,0.801,0.7971,0.7941,0.7887,0.7876,0.7848,0.7823,0.7803,0.7789,0.7795,0.7793,0.7794,0.775,0.7758,0.7755,0.7777,0.7776,0.7775,0.7753,0,0.8289,0.8227,0.8193,0.8145,0.8111,0.8079,0.805,0.8012,0.7983,0.7949,0.7917,0.7879,0.7869,0.7851,0.7831,0.7795,0.778,0.7797,0.7747,0.7746,0.7759,0.775,0.7758,0.774,0.775,0.775,0.7749,0,0.8263,0.8224,0.8173,0.812,0.8105,0.8079,0.8033,0.8002,0.7958,0.7938,0.7906,0.7881,0.7843,0.784,0.7787,0.78,0.7777,0.7757,0.7756,0.7749,0.7747,0.7742,0.7733,0.773,0.7744,0.7744,0.7745,0,0.8277,0.8212,0.8173,0.8151,0.8089,0.8071,0.8044,0.8,0.7974,0.7934,0.7916,0.7873,0.7849,0.7815,0.7779,0.778,0.7729,0.7723,0.771,0.7711,0.77,0.7701,0.7686,0.7688,0.7688,0.7688,0.7688,0,0.8264,0.8233,0.8178,0.8154,0.8118,0.8079,0.8045,0.8016,0.7977,0.7946,0.7916,0.7887,0.7841,0.7806,0.7778,0.7737,0.7727,0.7709,0.7702,0.7711,0.7713,0.7695,0.7695,0.7687,0.7687,0.7687,0.7688,0,0.8273,0.8234,0.8189,0.8133,0.8118,0.8095,0.8047,0.8021,0.7991,0.7952,0.794,0.7892,0.785,0.781,0.7754,0.7735,0.7694,0.7685,0.7709,0.7704,0.7693,0.7694,0.7665,0.7659,0.7666,0.7666,0.7666,0,0.8266,0.8242,0.8184,0.8161,0.8134,0.8098,0.8071,0.8032,0.8005,0.7952,0.7933,0.7889,0.7851,0.7784,0.7744,0.77,0.7689,0.7682,0.7682,0.7692,0.7688,0.7689,0.7686,0.7683,0.7683,0.7683,0.7683,0,0.8259,0.8241,0.8204,0.8159,0.8128,0.8092,0.8054,0.8037,0.799,0.7961,0.7918,0.7888,0.783,0.7786,0.7738,0.7709,0.7688,0.7683,0.7678,0.7687,0.7701,0.7692,0.7709,0.7684,0.7684,0.7684,0.7684,0.7684,0.8259,0.8236,0.8191,0.815,0.8117,0.8082,0.8056,0.8022,0.7985,0.7934,0.7913,0.7869,0.7824,0.7757,0.7729,0.7693,0.7688,0.768,0.7678,0.7677,0.7678,0.7708,0.7684,0.7684,0.7684,0.7684,0.7684,0,0.8249,0.8218,0.8181,0.8129,0.8097,0.808,0.8037,0.8011,0.7972,0.7933,0.7896,0.7845,0.7802,0.7758,0.7712,0.7692,0.7681,0.7681,0.7681,0.7675,0.7685,0.7694,0.769,0.769,0.769,0.769,0.769,0.769,0.824,0.8199,0.8176,0.8118,0.8087,0.8043,0.802,0.7988,0.7955,0.79,0.7864,0.7836,0.7794,0.7745,0.7704,0.7692,0.7676,0.7679,0.7664,0.7674,0.7674,0.7674,0.7682,0.7676,0.7676,0.7656,0.7656,0.7656]}]]